Location: Bottenau
(48.5138°N, 8.0462°E)
Time: 16:50:48
(UTC+00:00)

BREEZE-M DEB (TANK) - Pass Details

Date: 18 April 2021
Orbit: 413 x 18316 km, 53.0° (Epoch: 05 May)

Event Time Altitude Azimuth Distance (km) Brightness Sun altitude
Rises 19:49:09 0° 252° (WSW) 2,822 6.5 -13.5°
Reaches altitude 10° 19:50:33 10° 254° (WSW) 2,196 5.9 -13.7°
Maximum altitude 19:54:59 80° 341° (NNW) 1,301 4.2 -14.3°
Drops below altitude 10° 20:13:29 10° 71° (ENE) 8,243 7.9 -16.7°
Sets 20:26:34 0° 74° (ENE) 12,337 8.8 -18.3°
